TimeCDT,TemperatureF,Dew PointF,Humidity,Sea Level PressureIn,VisibilityMPH,Wind Direction,Wind SpeedMPH,Gust SpeedMPH,PrecipitationIn,Events,Conditions,WindDirDegrees,DateUTC
12:53 AM,73.0,71.1,93,30.10,10.0,East,4.6,-,N/A,,Mostly Cloudy,80,2013-07-16 05:53:00
1:53 AM,73.0,71.1,93,30.09,10.0,East,4.6,-,N/A,,Clear,80,2013-07-16 06:53:00
2:53 AM,73.0,71.1,93,30.09,10.0,East,3.5,-,N/A,,Partly Cloudy,80,2013-07-16 07:53:00
3:53 AM,73.0,71.1,93,30.09,10.0,East,4.6,-,N/A,,Mostly Cloudy,90,2013-07-16 08:53:00
4:53 AM,73.0,71.1,93,30.08,10.0,East,4.6,-,N/A,,Clear,90,2013-07-16 09:53:00
5:53 AM,73.0,71.1,93,30.10,10.0,East,5.8,-,N/A,,Clear,90,2013-07-16 10:53:00
6:53 AM,73.0,72.0,96,30.12,10.0,East,5.8,-,N/A,,Clear,80,2013-07-16 11:53:00
7:17 AM,73.4,71.6,94,30.14,9.0,Variable,4.6,-,N/A,,Partly Cloudy,0,2013-07-16 12:17:00
7:53 AM,75.0,72.0,90,30.13,10.0,East,5.8,-,N/A,,Clear,100,2013-07-16 12:53:00
8:53 AM,75.9,73.0,91,30.15,10.0,East,5.8,-,N/A,,Scattered Clouds,90,2013-07-16 13:53:00
9:12 AM,75.2,73.4,94,30.18,10.0,East,9.2,-,N/A,,Mostly Cloudy,80,2013-07-16 14:12:00
9:23 AM,75.2,73.4,94,30.17,10.0,East,8.1,-,N/A,,Mostly Cloudy,100,2013-07-16 14:23:00
9:53 AM,77.0,73.9,90,30.16,10.0,East,8.1,-,N/A,,Mostly Cloudy,90,2013-07-16 14:53:00
10:09 AM,78.8,73.4,83,30.17,10.0,East,8.1,-,N/A,,Scattered Clouds,100,2013-07-16 15:09:00
10:53 AM,79.0,73.0,82,30.16,10.0,East,9.2,-,N/A,,Partly Cloudy,80,2013-07-16 15:53:00
11:53 AM,84.0,72.0,67,30.16,10.0,East,9.2,-,N/A,,Clear,90,2013-07-16 16:53:00
12:53 PM,84.9,70.0,61,30.15,10.0,ESE,9.2,-,N/A,,Scattered Clouds,110,2013-07-16 17:53:00
1:53 PM,87.1,70.0,57,30.13,10.0,East,8.1,-,N/A,,Scattered Clouds,90,2013-07-16 18:53:00
2:53 PM,90.0,68.0,48,30.10,10.0,ESE,6.9,17.3,N/A,,Partly Cloudy,110,2013-07-16 19:53:00
3:53 PM,89.1,68.0,50,30.09,10.0,ENE,5.8,-,N/A,,Mostly Cloudy,60,2013-07-16 20:53:00
4:48 PM,89.6,69.8,52,30.10,10.0,ENE,11.5,-,0.00,Rain-Thunderstorm,Light Rain,60,2013-07-16 21:48:00
4:53 PM,88.0,70.0,55,30.09,10.0,ENE,12.7,-,0.00,Rain-Thunderstorm,Light Rain,60,2013-07-16 21:53:00
4:58 PM,82.4,73.4,74,30.12,1.5,NE,19.6,25.3,0.15,Rain-Thunderstorm,Light Thunderstorms and Rain,50,2013-07-16 21:58:00
5:09 PM,78.8,73.4,83,30.12,5.0,East,4.6,18.4,0.17,Rain-Thunderstorm,Light Thunderstorms and Rain,90,2013-07-16 22:09:00
5:53 PM,78.1,73.0,84,30.10,10.0,Calm,Calm,-,0.17,Rain-Thunderstorm,Light Rain,0,2013-07-16 22:53:00
6:12 PM,78.8,75.2,89,30.12,9.0,Calm,Calm,-,0.00,Rain,Light Rain,0,2013-07-16 23:12:00
6:53 PM,78.1,75.9,93,30.10,8.0,West,3.5,-,0.01,,Clear,270,2013-07-16 23:53:00
7:53 PM,77.0,75.9,96,30.10,9.0,NNW,3.5,-,0.00,,Partly Cloudy,330,2013-07-17 00:53:00
8:53 PM,75.9,75.9,100,30.12,8.0,NNE,3.5,-,N/A,,Clear,20,2013-07-17 01:53:00
9:53 PM,75.9,75.0,97,30.15,9.0,Calm,Calm,-,N/A,,Scattered Clouds,0,2013-07-17 02:53:00
10:36 PM,75.2,73.4,94,30.20,9.0,South,16.1,21.9,N/A,Thunderstorm,Mostly Cloudy,180,2013-07-17 03:36:00
10:49 PM,75.2,71.6,89,30.23,10.0,SSE,16.1,-,0.00,Rain-Thunderstorm,Light Thunderstorms and Rain,160,2013-07-17 03:49:00
10:53 PM,73.9,72.0,93,30.22,5.0,SE,13.8,24.2,0.04,Rain-Thunderstorm,Heavy Thunderstorms and Rain,140,2013-07-17 03:53:00
11:01 PM,73.4,73.4,100,30.24,2.5,SE,9.2,-,0.09,Rain-Thunderstorm,Heavy Thunderstorms and Rain,140,2013-07-17 04:01:00
11:08 PM,73.4,73.4,100,30.23,2.0,Calm,Calm,-,0.17,Rain-Thunderstorm,Heavy Thunderstorms and Rain,0,2013-07-17 04:08:00
11:13 PM,73.4,73.4,100,30.23,3.0,South,4.6,-,0.19,Rain-Thunderstorm,Heavy Thunderstorms and Rain,170,2013-07-17 04:13:00
11:53 PM,72.0,72.0,100,30.20,7.0,North,5.8,-,0.29,Rain-Thunderstorm,Thunderstorms and Rain,10,2013-07-17 04:53:00